Location: Allaines
(49.9632°N, 2.9458°E)
Time: 04:38:36
(UTC+00:00)

X-37B - Pass Details

Date: 01 July 2021
Orbit: 383 x 392 km, 45.0° (Epoch: 01 July)

Event Time Altitude Azimuth Distance (km) Brightness Sun altitude
Rises 20:44:22 0° 264° (W) 2,260 5.0 -6.0°
Reaches altitude 10° 20:46:35 10° 252° (WSW) 1,404 3.8 -6.2°
Maximum altitude 20:49:21 28° 191° (S) 753 1.7 -6.5°
Drops below altitude 10° 20:52:07 10° 130° (SE) 1,400 2.7 -6.8°
Enters shadow 20:52:20 - 128° (SE) 1,480 2.9 -6.8°
